Andover, NJ

10:49 AM EDT on March 29, 2017 (GMT -0400)
Andover

Weather History for K12N - December, 2013

Change the Weather History Date:

Tuesday, December 3, 2013

  Actual Average (KFWN) Record (KFWN)
Temperature  
Mean Temperature 39 °F -  
Max Temperature 51 °F 43 °F 65 °F (1970)
Min Temperature 27 °F 22 °F 0 °F (1967)
Degree Days  
Heating Degree Days 26    
Moisture  
Dew Point 30 °F    
Average Humidity 83    
Maximum Humidity 96    
Minimum Humidity 44    
Precipitation  
Precipitation 0.00 in - - ()
Sea Level Pressure  
Sea Level Pressure 29.96 in    
Wind  
Wind Speed 0 mph (SSW)    
Max Wind Speed 5 mph    
Max Gust Speed -    
Averages and records for this station are not official NWS values.
T = Trace of Precipitation, MM = Missing Value Source: NWS Daily Summary

Daily Weather History Graph

Daily Weather History Graph

Search for Another Location

Airport or City:

Trip Planner

Search our weather history database for the weather conditions in past years. The results will help you decide how hot, cold, wet, or windy it might be!

Date:

Astronomy

Dec. 03, 2013 Rise Set
Actual Time 7:06 AM EST 4:30 PM EST
Civil Twilight 6:36 AM EST 5:01 PM EST
Nautical Twilight 6:01 AM EST 5:35 PM EST
Astronomical Twilight 5:28 AM EST 6:09 PM EST
Moon 7:33 AM EST (12/3) 5:32 PM EST (12/3)
Length of Visible Light 10h 25m
Length of Day
9h 24m
New Moon, 1% of the Moon is Illuminated
Dec 3
New Moon
Dec 9
First Quarter
Dec 17
Full
Dec 25
Last Quarter
Jan 1
New

Hourly Weather History & Observations

Time (EST) Temp. Windchill Dew Point Humidity Pressure Visibility Wind Dir Wind Speed Gust Speed Precip Events Conditions
12:54 AM 27.0 °F - 25.0 °F 92% 29.93 in - Calm Calm - N/A   Unknown
1:54 AM 28.0 °F - 27.0 °F 96% 29.93 in - Calm Calm - N/A   Unknown
2:54 AM 30.0 °F - 28.0 °F 92% 29.94 in - Calm Calm - N/A   Unknown
3:54 AM 30.0 °F - 28.0 °F 92% 29.92 in - Calm Calm - N/A   Unknown
4:54 AM 28.9 °F - 27.0 °F 92% 29.92 in - Calm Calm - N/A   Unknown
5:54 AM 30.0 °F - 28.0 °F 92% 29.94 in - Calm Calm - N/A   Unknown
6:54 AM 30.9 °F - 28.9 °F 92% 29.95 in - Calm Calm - N/A   Unknown
7:54 AM 30.9 °F - 30.0 °F 96% 29.96 in - Calm Calm - N/A   Unknown
8:54 AM 34.0 °F - 32.0 °F 92% 29.97 in - Calm Calm - N/A   Unknown
9:54 AM 37.0 °F - 33.1 °F 86% 29.97 in - Calm Calm - N/A   Unknown
10:54 AM 39.9 °F - 33.1 °F 77% 29.96 in - Calm Calm - N/A   Unknown
11:54 AM 45.0 °F 43.5 °F 33.1 °F 63% 29.94 in - South 3.5 mph - N/A   Unknown
12:54 PM 48.9 °F - 33.1 °F 54% 29.91 in - SW 4.6 mph - N/A   Unknown
1:54 PM 51.1 °F - 30.9 °F 46% 29.90 in - Variable 4.6 mph - N/A   Unknown
2:54 PM 51.1 °F - 30.0 °F 44% 29.90 in - Variable 3.5 mph - N/A   Unknown
4:54 PM 39.9 °F - 32.0 °F 73% 29.96 in - Calm Calm - N/A   Unknown
5:54 PM 35.1 °F - 30.9 °F 85% 29.97 in - Calm Calm - N/A   Unknown
6:54 PM 34.0 °F - 30.9 °F 89% 29.99 in - Calm Calm - N/A   Unknown
7:54 PM 32.0 °F - 30.0 °F 92% 30.01 in - Calm Calm - N/A   Unknown
8:54 PM 30.9 °F - 28.9 °F 92% 30.00 in - Calm Calm - N/A   Unknown
9:54 PM 28.9 °F - 27.0 °F 92% 30.02 in - Calm Calm - N/A   Unknown
10:54 PM 28.9 °F - 27.0 °F 92% 30.03 in - Calm Calm - N/A   Unknown
11:54 PM 27.0 °F - 26.1 °F 96% 30.04 in - Calm Calm - N/A   Unknown